Wind_Speed
38 40 40 41 40 40 40 41 42 43 46 48 53 58 63 63 58 60 56 47 50 51 50 48 41 44 44 49 47 44 49 45 41 38 29 33 33 40 35 38 37 31 29 35 38
26 30 34 39 41 41 39 39 41 43 44 46 51 55 60 67 71 71 63 61 62 59 54 53 51 51 51 46 50 52 52 46 34 44 38 37 42 38 41 41 35 35 32 37 41
28 30 32 34 36 38 39 40 40 40 41 42 45 50 55 57 59 66 64 59 62 66 64 61 58 53 56 52 56 52 51 45 48 45 50 51 42 43 45 41 34 35 34 36 41
27 29 31 34 36 38 41 41 42 42 44 43 44 44 47 55 59 59 68 66 64 62 66 64 62 64 61 59 57 60 59 57 54 42 51 55 42 46 42 38 29 35 38 40 41
32 34 35 37 38 39 40 42 43 44 46 47 48 47 46 49 54 56 58 62 68 73 69 68 67 64 68 66 64 65 64 58 48 46 54 53 51 48 47 37 31 40 41 39 43
35 37 39 40 42 43 45 46 47 48 48 49 50 52 52 47 48 53 55 53 54 63 69 76 77 73 72 73 69 60 61 56 55 51 55 55 58 53 45 32 37 40 40 38 42
38 40 42 43 45 47 47 49 51 51 53 54 54 54 53 50 54 55 58 59 57 58 58 62 68 71 69 68 64 66 63 62 54 51 51 48 53 47 41 32 40 40 38 37 41
42 44 46 47 48 50 52 53 54 55 56 56 58 59 57 57 57 58 58 59 60 61 60 61 63 64 67 66 65 65 63 63 57 51 49 50 42 32 38 42 44 40 40 36 41
45 47 49 51 53 54 57 58 58 57 56 58 60 62 60 63 63 61 60 61 62 61 59 62 63 65 66 64 62 62 57 61 61 59 57 52 46 39 44 48 50 44 42 36 41
48 50 53 55 57 58 59 60 60 59 60 61 61 61 63 67 68 69 67 66 65 64 63 61 61 62 61 62 55 55 64 59 59 51 58 57 51 48 49 55 52 49 42 40 40
53 55 57 59 61 63 66 67 67 66 67 67 67 64 65 69 69 71 72 74 72 68 65 64 65 60 50 53 57 59 60 58 54 52 58 57 57 48 52 55 49 46 42 39 36
56 59 63 67 69 71 73 73 74 74 71 70 70 72 71 71 69 73 76 78 78 74 67 70 68 46 53 55 57 58 56 55 51 54 56 59 57 54 53 53 44 43 36 39 30
63 67 72 73 73 74 69 68 67 68 76 63 67 69 70 70 72 68 74 78 80 79 75 73 53 54 52 57 51 49 52 49 48 46 48 47 53 49 49 44 35 35 35 35 27
72 72 68 61 60 56 54 53 51 48 56 57 55 53 57 63 65 66 67 74 76 77 78 75 63 63 57 53 47 46 43 44 42 40 38 38 52 40 37 36 32 33 33 29 31
68 60 51 49 47 47 48 47 45 44 44 45 40 34 39 46 53 56 60 65 72 72 74 71 74 70 65 54 49 49 41 39 38 38 41 38 45 32 32 31 25 22 26 27 24
54 46 43 42 42 43 43 42 41 39 34 34 34 29 28 30 35 38 46 53 64 67 68 73 74 71 63 61 51 48 40 35 43 40 44 35 33 32 28 17 19 21 23 24 22
41 37 35 35 38 38 34 29 22 25 27 23 28 29 26 27 33 32 33 41 51 59 67 71 78 75 69 64 57 52 45 41 46 43 46 27 32 17 11 14 20 18 16 20 23
34 32 29 36 42 19 10 12 11 14 18 26 32 27 26 24 29 28 30 27 40 51 57 67 74 78 74 67 60 58 51 48 47 44 35 28 31 6 15 11 11 16 20 16 16
34 27 29 36 34 14 11 10 12 13 10 8 11 14 14 18 26 25 26 22 30 45 64 44 70 73 73 68 64 59 58 43 43 43 35 25 19 20 18 8 12 11 14 16 14
26 26 31 32 29 16 13 11 12 14 14 12 12 12 13 16 22 22 24 18 33 46 67 57 67 64 71 64 64 59 48 49 47 47 39 34 13 18 15 14 12 11 11 12 12
28 31 30 31 26 20 13 15 15 18 17 11 11 11 10 16 20 22 29 24 28 43 59 56 66 49 63 70 66 61 57 50 49 44 36 27 16 18 23 26 18 17 14 11 12
30 29 30 29 26 22 19 14 16 16 16 11 8 7 6 10 15 23 28 28 23 33 58 60 67 53 58 64 59 54 54 53 50 43 34 21 18 21 21 19 17 17 17 12 12
27 31 31 32 27 27 22 15 14 12 11 9 8 6 7 8 8 13 16 33 20 36 46 68 50 47 47 47 60 59 55 50 43 44 33 22 14 15 25 25 24 20 15 12 13
26 28 28 31 32 33 30 22 17 14 14 12 7 5 4 6 7 12 14 26 22 23 38 67 50 54 38 49 57 62 55 53 48 46 35 24 21 25 32 31 26 21 16 13 13
28 30 29 31 34 35 35 29 20 13 13 10 6 6 9 6 8 8 15 22 21 20 40 61 52 50 48 58 61 61 58 57 52 41 37 30 25 30 35 30 27 22 15 14 14
28 29 31 32 34 34 33 29 25 16 18 11 11 10 11 10 10 12 14 28 17 10 32 49 60 52 44 56 62 62 58 50 46 35 36 31 30 38 37 33 29 24 20 15 10
34 31 31 32 33 32 32 27 22 22 13 12 7 10 12 9 8 8 15 31 25 22 35 32 58 59 44 49 54 54 52 50 45 37 34 28 35 44 42 40 34 28 23 19 10
Wind_Direction
266 266 264 262 258 254 253 251 249 248 247 245 241 242 239 239 238 245 235 228 233 234 238 238 241 249 252 248 243 246 250 255 256 254 255 256 252 265 265 269 278 293 294 295 303
271 269 270 270 270 268 263 256 251 250 246 244 244 242 239 241 241 246 241 242 237 239 243 247 246 246 247 247 247 251 254 255 263 264 250 250 261 260 260 264 271 285 290 295 298
272 270 266 264 263 263 265 267 265 260 257 255 246 244 243 242 242 241 241 235 237 243 243 247 250 250 251 248 252 254 255 259 267 266 252 251 253 251 257 265 271 275 285 291 293
275 273 271 269 267 266 264 263 263 263 264 261 258 252 248 245 244 241 238 238 236 241 249 248 249 253 252 254 255 258 259 264 261 261 254 252 253 250 259 270 271 268 279 287 287
274 272 270 269 267 266 266 265 264 261 261 262 262 257 251 247 244 246 242 242 243 239 246 252 251 256 257 259 262 261 261 265 262 249 248 252 254 260 261 267 271 268 274 285 287
281 279 276 273 271 269 267 265 263 262 261 259 258 257 255 252 244 245 246 243 241 242 246 248 252 255 257 259 260 263 265 263 254 250 245 252 256 256 261 262 261 269 281 282 283
290 288 284 279 275 272 269 267 266 264 262 261 258 257 257 256 249 244 244 244 243 242 240 243 248 250 255 258 258 259 260 261 257 261 254 256 257 259 260 264 265 269 277 285 285
293 290 287 284 281 279 276 273 270 266 262 259 258 256 255 252 252 250 247 246 245 243 242 241 242 247 248 254 259 258 257 257 260 263 257 258 262 261 260 266 267 272 273 277 281
289 287 285 283 281 280 278 275 273 270 265 261 258 254 252 250 248 247 249 247 245 244 243 242 242 242 245 252 254 257 258 255 259 263 262 259 267 267 267 267 269 273 275 273 275
288 286 285 282 280 278 276 274 271 268 267 265 262 258 254 250 247 246 245 247 245 244 243 242 243 241 245 250 256 256 258 259 258 264 267 268 267 268 268 270 270 272 263 265 268
295 293 290 287 283 280 278 275 272 270 269 266 264 261 258 251 250 244 243 242 244 242 243 243 242 243 252 255 256 252 255 261 266 267 266 271 271 269 274 270 266 266 260 258 264
299 296 293 291 289 286 284 282 279 273 270 270 267 263 260 256 253 247 243 240 239 241 239 238 242 254 246 250 250 253 256 258 262 263 267 270 274 270 269 267 264 261 258 257 259
303 302 300 298 294 290 290 288 283 280 272 272 269 266 262 258 254 247 245 243 240 237 237 239 250 245 245 245 251 253 255 257 260 262 264 266 265 265 262 268 264 262 250 252 254
310 308 304 301 296 295 291 289 288 287 281 278 268 266 263 263 258 250 244 242 241 236 235 235 235 236 234 238 243 246 247 251 254 257 256 265 267 264 268 264 255 247 245 249 249
313 311 307 302 297 295 292 289 287 286 287 280 281 271 260 255 252 250 245 239 240 236 227 231 232 229 233 236 235 241 247 247 245 250 256 249 263 278 276 264 261 243 245 239 244
318 314 311 308 304 299 295 290 285 281 277 269 268 259 253 249 246 240 243 235 233 231 227 223 226 226 231 231 231 238 243 243 243 243 251 259 272 278 281 261 241 222 225 233 248
323 323 321 322 318 309 298 293 282 270 266 262 264 256 251 250 251 244 234 236 226 224 221 220 219 221 222 225 223 228 229 232 238 238 251 267 274 308 239 207 209 214 223 232 244
332 332 331 334 334 320 345 345 327 298 270 254 259 256 250 252 251 240 238 238 228 218 209 213 211 217 219 222 223 224 227 230 235 241 256 262 271 218 186 172 184 218 221 230 233
338 333 331 340 340 320 312 351 351 354 345 332 309 283 259 247 247 231 231 229 217 209 207 209 207 213 214 217 219 220 226 227 234 247 251 255 276 194 210 194 224 198 212 225 237
352 347 338 340 343 332 4 356 359 360 347 332 316 288 256 246 241 225 201 191 224 214 201 197 199 207 210 213 218 222 223 222 231 235 246 251 249 192 188 212 224 216 232 234 230
358 353 352 351 345 340 333 337 345 344 344 338 324 299 274 261 240 228 218 203 199 217 204 196 201 197 203 205 212 211 214 218 228 233 236 240 186 185 192 196 211 228 244 244 238
2 2 3 3 3 346 326 322 324 334 337 324 335 321 265 247 249 229 225 201 187 215 205 190 198 192 203 201 205 212 217 218 221 226 225 228 194 192 207 194 198 216 229 224 236
11 5 6 11 9 6 2 352 338 332 339 346 309 322 311 278 252 231 237 212 166 206 211 193 199 191 191 197 199 206 210 217 219 226 218 213 176 197 191 191 203 212 220 239 239
14 11 14 16 19 17 10 357 340 325 330 334 311 300 291 256 233 237 234 207 223 193 206 197 192 188 190 193 197 204 205 214 212 215 207 190 180 175 182 189 203 211 221 236 235
5 6 2 358 3 3 4 3 358 338 323 344 333 296 298 266 243 240 226 219 204 180 209 201 189 181 176 191 196 199 208 213 213 211 210 202 183 184 177 192 202 207 216 223 227
353 353 352 351 355 359 359 7 11 21 341 310 311 303 284 290 264 219 227 220 202 185 184 202 191 176 176 191 199 204 205 208 215 209 212 201 182 182 189 190 201 201 204 206 223
13 7 359 359 354 358 1 8 12 13 357 334 319 304 315 310 282 234 240 227 179 172 205 197 204 189 172 189 198 203 206 209 211 206 209 193 189 184 188 194 198 198 203 197 202
Height
5804 5804 5805 5806 5807 5808 5809 5810 5810 5811 5813 5815 5817 5820 5823 5826 5829 5831 5838 5839 5834 5837 5838 5842 5846 5849 5851 5855 5857 5859 5857 5861 5868 5871 5874 5869 5869 5863 5865 5864 5866 5864 5864 5858 5855
5799 5798 5797 5796 5797 5798 5800 5801 5802 5802 5803 5805 5807 5809 5812 5815 5818 5820 5827 5828 5825 5828 5833 5835 5839 5840 5842 5847 5848 5849 5851 5856 5865 5864 5864 5862 5862 5860 5856 5858 5863 5859 5858 5852 5848
5793 5793 5792 5792 5791 5790 5790 5790 5790 5792 5794 5795 5797 5798 5801 5803 5806 5811 5815 5819 5818 5818 5824 5826 5827 5830 5833 5838 5839 5844 5842 5853 5852 5856 5855 5851 5854 5852 5850 5850 5858 5854 5852 5848 5844
5786 5785 5784 5783 5782 5781 5780 5780 5780 5780 5781 5783 5785 5787 5790 5791 5794 5798 5804 5808 5811 5814 5810 5816 5817 5818 5824 5827 5832 5831 5838 5838 5842 5849 5842 5839 5846 5841 5845 5847 5852 5846 5843 5840 5838
5777 5776 5774 5773 5773 5771 5770 5769 5770 5770 5771 5771 5772 5775 5777 5780 5785 5788 5791 5797 5798 5803 5803 5803 5808 5810 5810 5817 5821 5821 5823 5828 5831 5833 5832 5831 5832 5835 5837 5844 5843 5836 5835 5834 5831
5768 5766 5764 5762 5761 5760 5759 5759 5759 5759 5760 5760 5760 5761 5763 5768 5773 5774 5776 5782 5788 5791 5792 5793 5795 5799 5802 5804 5807 5815 5812 5815 5814 5821 5822 5824 5823 5827 5832 5839 5833 5829 5827 5826 5823
5758 5755 5752 5750 5748 5747 5746 5745 5745 5745 5745 5745 5746 5748 5750 5756 5758 5761 5763 5767 5773 5778 5783 5786 5785 5789 5794 5794 5798 5799 5800 5801 5807 5811 5812 5817 5812 5818 5824 5827 5822 5820 5820 5818 5816
5746 5743 5740 5737 5734 5732 5730 5729 5729 5728 5728 5729 5730 5732 5736 5741 5741 5746 5750 5753 5756 5761 5766 5771 5775 5778 5780 5783 5784 5788 5790 5790 5798 5801 5805 5806 5806 5815 5816 5814 5812 5813 5813 5812 5808
5734 5730 5726 5722 5719 5716 5713 5711 5711 5710 5710 5711 5712 5714 5720 5723 5726 5729 5732 5736 5739 5744 5752 5755 5760 5767 5770 5773 5775 5776 5777 5783 5788 5792 5793 5795 5798 5807 5806 5803 5801 5804 5805 5803 5801
5721 5716 5710 5705 5701 5698 5694 5692 5691 5691 5690 5691 5693 5698 5700 5702 5705 5710 5716 5718 5723 5730 5736 5744 5747 5751 5759 5762 5760 5769 5767 5775 5781 5786 5783 5784 5788 5792 5793 5790 5790 5792 5794 5795 5794
5706 5699 5693 5688 5683 5678 5674 5670 5670 5671 5667 5669 5669 5675 5678 5678 5686 5691 5697 5702 5705 5713 5721 5729 5731 5738 5752 5756 5759 5761 5764 5766 5773 5778 5774 5774 5771 5779 5781 5779 5779 5780 5782 5785 5787
5690 5683 5674 5665 5658 5653 5647 5643 5641 5642 5647 5643 5643 5650 5652 5653 5667 5667 5675 5682 5689 5697 5705 5707 5713 5738 5744 5743 5747 5752 5758 5760 5767 5768 5766 5763 5762 5766 5767 5766 5772 5771 5777 5778 5780
5672 5661 5651 5640 5633 5626 5620 5617 5614 5613 5616 5622 5616 5621 5626 5629 5638 5647 5650 5655 5668 5678 5686 5691 5721 5726 5732 5731 5739 5746 5748 5755 5757 5758 5754 5753 5748 5754 5756 5761 5766 5767 5769 5770 5774
5651 5639 5628 5620 5613 5606 5602 5598 5595 5594 5591 5594 5596 5600 5602 5604 5610 5619 5626 5636 5645 5659 5668 5678 5705 5706 5713 5723 5732 5734 5742 5745 5749 5747 5746 5747 5734 5747 5752 5753 5754 5754 5758 5765 5767
5631 5620 5610 5602 5598 5593 5587 5584 5582 5581 5581 5574 5578 5582 5587 5589 5591 5593 5605 5615 5627 5636 5642 5678 5679 5688 5700 5715 5722 5727 5733 5738 5740 5739 5737 5741 5734 5744 5744 5744 5746 5748 5753 5758 5762
5614 5605 5597 5590 5584 5578 5573 5570 5569 5570 5569 5568 5568 5571 5574 5574 5575 5581 5587 5595 5604 5613 5626 5654 5661 5675 5695 5702 5714 5719 5725 5729 5730 5731 5726 5735 5736 5736 5737 5738 5739 5741 5747 5752 5756
5601 5594 5587 5581 5574 5567 5561 5558 5559 5559 5558 5560 5558 5559 5562 5564 5564 5568 5576 5577 5588 5596 5609 5630 5642 5660 5674 5686 5699 5706 5715 5720 5720 5720 5719 5733 5728 5735 5731 5733 5736 5738 5743 5747 5750
5593 5587 5581 5575 5566 5558 5556 5555 5554 5551 5549 5548 5547 5549 5552 5555 5556 5561 5566 5570 5577 5584 5605 5612 5625 5645 5661 5674 5688 5695 5704 5710 5713 5716 5723 5726 5723 5730 5730 5732 5734 5737 5740 5743 5745
5588 5582 5577 5571 5561 5557 5556 5554 5553 5550 5547 5544 5543 5542 5547 5548 5549 5553 5557 5562 5567 5575 5590 5603 5617 5633 5647 5665 5675 5687 5692 5710 5710 5713 5719 5724 5724 5727 5727 5731 5733 5734 5737 5739 5743
5586 5580 5575 5568 5561 5557 5555 5553 5550 5547 5544 5542 5541 5540 5540 5542 5542 5546 5551 5554 5557 5560 5571 5591 5603 5617 5637 5653 5664 5677 5694 5698 5701 5705 5712 5716 5722 5724 5726 5728 5730 5733 5734 5737 5740
5586 5580 5573 5565 5559 5555 5552 5550 5548 5545 5542 5540 5538 5537 5537 5537 5537 5541 5543 5547 5549 5557 5570 5585 5595 5611 5619 5631 5653 5664 5674 5686 5693 5702 5708 5714 5719 5720 5721 5724 5728 5730 5732 5735 5738
5587 5580 5572 5565 5559 5553 5549 5546 5544 5542 5539 5536 5535 5534 5533 5534 5534 5536 5538 5542 5546 5552 5561 5573 5587 5599 5613 5636 5647 5659 5670 5677 5684 5694 5705 5710 5715 5717 5719 5723 5725 5728 5730 5733 5735
5588 5581 5574 5567 5561 5553 5548 5544 5541 5539 5537 5534 5533 5532 5531 5531 5532 5534 5536 5540 5543 5549 5555 5571 5583 5599 5611 5622 5635 5646 5659 5670 5682 5686 5698 5705 5713 5713 5717 5720 5722 5725 5728 5731 5733
5590 5584 5577 5569 5562 5556 5550 5544 5540 5536 5534 5532 5530 5530 5529 5529 5530 5531 5533 5538 5539 5543 5550 5564 5576 5590 5611 5621 5633 5640 5650 5659 5669 5677 5693 5701 5705 5709 5714 5716 5720 5723 5727 5729 5730
5590 5584 5577 5570 5563 5557 5550 5543 5538 5534 5531 5529 5528 5527 5527 5526 5526 5527 5529 5533 5536 5540 5546 5559 5575 5589 5594 5604 5619 5629 5640 5648 5659 5675 5687 5696 5702 5705 5710 5713 5716 5721 5724 5726 5728
5591 5585 5577 5571 5565 5557 5549 5543 5538 5534 5531 5528 5527 5525 5523 5522 5522 5522 5525 5529 5533 5539 5544 5557 5572 5582 5591 5602 5612 5623 5633 5646 5656 5672 5679 5690 5696 5702 5705 5709 5712 5716 5719 5723 5725
5594 5585 5578 5571 5564 5558 5551 5544 5538 5534 5531 5526 5524 5522 5521 5520 5518 5519 5522 5529 5535 5539 5544 5554 5564 5577 5589 5600 5606 5618 5629 5640 5651 5665 5673 5686 5694 5694 5697 5700 5706 5712 5716 5719 5723